This demonstration page uses our WeatherBlox Daily Observations layout. Learn more.

Left ArrowRight Arrow

Hourly Observations for October 7, 2022

Temp ( °F °C ) Dew Point ( °F °C ) Humidity (%) Winds ( mph kmh ) Pressure ( in mb ) Visibility ( mi km ) Precip ( " mm )
12:53 am 00:53 Clear 49 9.4 47 8.3 93 93 Calm 30.06 1018 7 11 0.00 0.00
1:53 am 01:53 Clear 47 8.3 44 6.7 90 90 Calm 30.06 1018 10 16 0.00 0.00
2:53 am 02:53 Clear 49 9.4 47 8.3 93 93 Calm 30.07 1018 9 14 0.00 0.00
3:53 am 03:53 Clear with Mist and Fog 47 8.3 46 7.8 97 97 Calm 30.09 1019 5 8 0.00 0.00
4:53 am 04:53 Clear 53 11.7 49 9.4 86 86 Calm 30.11 1020 10 16 0.00 0.00
5:53 am 05:53 Clear 52 11.1 45 7.2 77 77 VRB 6 9 30.14 1021 10 16 0.00 0.00
6:53 am 06:53 Mostly Cloudy 51 10.6 45 7.2 79 79 NW 3 6 30.16 1021 10 16 0.00 0.00
7:53 am 07:53 Mostly Cloudy 51 10.6 45 7.2 79 79 Calm 30.18 1022 10 16 0.00 0.00
8:53 am 08:53 Mostly Cloudy 54 12.2 47 8.3 77 77 NNW 7 11 30.21 1023 10 16 0.00 0.00
9:36 am 09:36 Cloudy 54 12.2 47 8.3 77 77 N 7 11 30.23 1024 10 16 0.00 0.00
9:53 am 09:53 Cloudy 55 12.8 46 7.8 72 72 NNW 12 19 30.23 1024 10 16 0.00 0.00
10:04 am 10:04 Cloudy 55 12.8 46 7.8 72 72 N 10 17 30.23 1024 10 16 0.00 0.00
10:53 am 10:53 Mostly Cloudy 57 13.9 45 7.2 64 64 N 7 11 30.24 1024 10 16 0.00 0.00
11:53 am 11:53 Sunny 58 14.4 42 5.6 55 55 NNW 12 19 30.25 1025 10 16 0.00 0.00
12:53 pm 12:53 Mostly Sunny 60 15.6 41 5 49 49 N 12 19 30.25 1025 10 16 0.00 0.00
1:53 pm 13:53 Mostly Cloudy 60 15.6 40 4.4 47 47 NW 13 20 30.26 1025 10 16 0.00 0.00
2:53 pm 14:53 Mostly Sunny 58 14.4 39 3.9 49 49 N 12 19 30.26 1025 10 16 0.00 0.00
3:53 pm 15:53 Sunny 59 15 37 2.8 44 44 N 9 15 30.26 1025 10 16 0.00 0.00
4:53 pm 16:53 Mostly Sunny 58 14.4 37 2.8 46 46 NNE 9 15 30.26 1025 10 16 0.00 0.00
5:53 pm 17:53 Sunny 56 13.3 36 2.2 47 47 VRB 7 11 30.27 1025 10 16 0.00 0.00
6:53 pm 18:53 Sunny 53 11.7 35 1.7 50 50 N 9 15 30.29 1026 10 16 0.00 0.00
7:53 pm 19:53 Clear 47 8.3 34 1.1 60 60 Calm 30.31 1026 10 16 0.00 0.00
8:53 pm 20:53 Clear 42 5.6 36 2.2 79 79 Calm 30.33 1027 10 16 0.00 0.00
9:53 pm 21:53 Clear 41 5 35 1.7 79 79 NNW 5 7 30.35 1028 10 16 0.00 0.00
10:53 pm 22:53 Clear 41 5 35 1.7 79 79 NNW 3 6 30.36 1028 10 16 0.00 0.00
11:53 pm 23:53 Clear 39 3.9 34 1.1 82 82 NNW 6 9 30.37 1028 10 16 0.00 0.00

Powered by AerisWeather